| time (UTC) | temp F | wind direction | speed MPH | gust MPH | rain 1hr in | rain 24hr in | rain mn in | humidity % | barometer mb |
| 20260504045048 | 58 | 176 | 0.0 | 0.0 | 0.00 | 0.00 | 0.00 | 84 | 1013.8 |
| 20260504041049 | 60 | 176 | 0.0 | 0.0 | 0.00 | 0.00 | 0.00 | 81 | 1013.7 |
| 20260504040048 | 60 | 176 | 0.0 | 0.0 | 0.00 | 0.00 | 0.00 | 81 | 1013.7 |
| 20260504035049 | 61 | 176 | 0.0 | 0.0 | 0.00 | 0.00 | 0.00 | 79 | 1013.8 |
| 20260504034049 | 61 | 176 | 0.0 | 0.0 | 0.00 | 0.00 | 0.00 | 80 | 1013.8 |
| 20260504033049 | 62 | 176 | 0.0 | 0.0 | 0.00 | 0.00 | 0.00 | 79 | 1013.8 |
| 20260504032049 | 62 | 176 | 0.0 | 0.0 | 0.00 | 0.00 | 0.00 | 77 | 1013.7 |
| 20260504031048 | 62 | 176 | 0.0 | 0.0 | 0.00 | 0.00 | 0.00 | 78 | 1013.7 |
| 20260504030049 | 63 | 176 | 0.0 | 0.0 | 0.00 | 0.00 | 0.00 | 77 | 1013.7 |
| 20260504025048 | 63 | 176 | 0.0 | 0.0 | 0.00 | 0.00 | 0.00 | 76 | 1013.6 |
| 20260504024048 | 63 | 176 | 0.0 | 2.0 | 0.00 | 0.00 | 0.00 | 77 | 1013.6 |
| 20260504023049 | 63 | 176 | 0.0 | 3.0 | 0.00 | 0.00 | 0.00 | 78 | 1013.7 |
| 20260504022049 | 64 | 176 | 0.0 | 2.0 | 0.00 | 0.00 | 0.00 | 76 | 1013.7 |
| 20260504021049 | 65 | 176 | 0.0 | 0.0 | 0.00 | 0.00 | 0.00 | 74 | 1013.5 |
| 20260504020049 | 66 | 176 | 0.0 | 0.0 | 0.00 | 0.00 | 0.00 | 72 | 1013.4 |
| 20260504015049 | 67 | 176 | 0.0 | 0.0 | 0.00 | 0.00 | 0.00 | 71 | 1013.3 |
| 20260504013049 | 69 | 176 | 0.0 | 0.0 | 0.00 | 0.00 | 0.00 | 67 | 1013.0 |
| 20260504011049 | 71 | 176 | 0.0 | 1.0 | 0.00 | 0.00 | 0.00 | 62 | 1013.0 |
| 20260504010049 | 72 | 176 | 0.0 | 2.0 | 0.00 | 0.00 | 0.00 | 60 | 1013.0 |
| 20260504005049 | 74 | 176 | 0.0 | 1.0 | 0.00 | 0.00 | 0.00 | 59 | 1012.8 |
| 20260504004049 | 75 | 176 | 1.0 | 4.0 | 0.00 | 0.00 | 0.00 | 54 | 1012.8 |
| 20260504003049 | 76 | 186 | 0.0 | 5.0 | 0.00 | 0.00 | 0.00 | 54 | 1012.9 |
| 20260504002049 | 76 | 249 | 0.0 | 5.0 | 0.00 | 0.00 | 0.00 | 51 | 1012.9 |
| 20260504001049 | 77 | 195 | 2.0 | 4.0 | 0.00 | 0.00 | 0.00 | 50 | 1013.0 |
| 20260503235049 | 78 | 224 | 1.0 | 8.0 | 0.00 | 0.00 | 0.00 | 48 | 1013.0 |
| 20260503234049 | 78 | 214 | 2.0 | 10.0 | 0.00 | 0.00 | 0.00 | 49 | 1012.9 |
| 20260503233049 | 79 | 237 | 3.0 | 9.0 | 0.00 | 0.00 | 0.00 | 47 | 1013.0 |
| 20260503232049 | 79 | 219 | 3.0 | 9.0 | 0.00 | 0.00 | 0.00 | 48 | 1013.0 |
| 20260503230049 | 80 | 280 | 3.0 | 11.0 | 0.00 | 0.00 | 0.00 | 47 | 1013.1 |
| 20260503225049 | 80 | 198 | 1.0 | 8.0 | 0.00 | 0.00 | 0.00 | 48 | 1013.1 |
| 20260503224049 | 80 | 277 | 3.0 | 8.0 | 0.00 | 0.00 | 0.00 | 46 | 1013.2 |
| 20260503223049 | 80 | 224 | 4.0 | 10.0 | 0.00 | 0.00 | 0.00 | 45 | 1013.2 |
| 20260503222049 | 80 | 198 | 4.0 | 6.0 | 0.00 | 0.00 | 0.00 | 45 | 1013.2 |
| 20260503221049 | 80 | 286 | 3.0 | 9.0 | 0.00 | 0.00 | 0.00 | 48 | 1013.3 |
| 20260503220049 | 81 | 283 | 3.0 | 10.0 | 0.00 | 0.00 | 0.00 | 46 | 1013.4 |
| 20260503213049 | 82 | 223 | 6.0 | 9.0 | 0.00 | 0.00 | 0.00 | 48 | 1013.6 |
| 20260503212049 | 81 | 209 | 2.0 | 6.0 | 0.00 | 0.00 | 0.00 | 47 | 1013.9 |
| 20260503210049 | 81 | 236 | 2.0 | 8.0 | 0.00 | 0.00 | 0.00 | 45 | 1014.2 |
| 20260503205049 | 82 | 263 | 1.0 | 8.0 | 0.00 | 0.00 | 0.00 | 45 | 1014.4 |
| 20260503204049 | 82 | 279 | 2.0 | 9.0 | 0.00 | 0.00 | 0.00 | 47 | 1014.6 |
| 20260503203049 | 82 | 257 | 7.0 | 9.0 | 0.00 | 0.00 | 0.00 | 46 | 1014.8 |
| 20260503202049 | 82 | 234 | 1.0 | 12.0 | 0.00 | 0.00 | 0.00 | 45 | 1014.9 |
| 20260503201049 | 82 | 153 | 4.0 | 10.0 | 0.00 | 0.00 | 0.00 | 47 | 1015.2 |
| 20260503195049 | 82 | 315 | 4.0 | 8.0 | 0.00 | 0.00 | 0.00 | 50 | 1015.5 |
| 20260503194049 | 81 | 128 | 8.0 | 10.0 | 0.00 | 0.00 | 0.00 | 50 | 1015.8 |
| 20260503192049 | 80 | 271 | 7.0 | 10.0 | 0.00 | 0.00 | 0.00 | 47 | 1016.0 |
| 20260503190050 | 80 | 278 | 3.0 | 10.0 | 0.00 | 0.00 | 0.00 | 47 | 1016.3 |
| 20260503185050 | 80 | 234 | 10.0 | 11.0 | 0.00 | 0.00 | 0.00 | 47 | 1016.4 |
| 20260503184050 | 81 | 244 | 3.0 | 8.0 | 0.00 | 0.00 | 0.00 | 51 | 1016.6 |
| 20260503183050 | 80 | 257 | 2.0 | 11.0 | 0.00 | 0.00 | 0.00 | 52 | 1016.9 |
| 20260503182050 | 79 | 237 | 5.0 | 10.0 | 0.00 | 0.00 | 0.00 | 51 | 1017.3 |
| 20260503181049 | 79 | 249 | 3.0 | 11.0 | 0.00 | 0.00 | 0.00 | 50 | 1017.4 |
| 20260503180049 | 79 | 296 | 7.0 | 11.0 | 0.00 | 0.00 | 0.00 | 50 | 1017.5 |
| 20260503175050 | 78 | 274 | 4.0 | 9.0 | 0.00 | 0.00 | 0.00 | 52 | 1017.8 |
| 20260503174049 | 78 | 217 | 4.0 | 9.0 | 0.00 | 0.00 | 0.00 | 56 | 1017.8 |
| 20260503173049 | 77 | 265 | 3.0 | 10.0 | 0.00 | 0.00 | 0.00 | 49 | 1018.0 |
| 20260503172050 | 77 | 207 | 3.0 | 10.0 | 0.00 | 0.00 | 0.00 | 52 | 1018.1 |
| 20260503171049 | 77 | 312 | 2.0 | 11.0 | 0.00 | 0.00 | 0.00 | 50 | 1018.3 |
| 20260503131050 | 54 | 232 | 0.0 | 0.0 | 0.00 | 0.00 | 0.00 | 91 | 1019.5 |
| 20260503081050 | 48 | 253 | 0.0 | 0.0 | 0.00 | 0.00 | 0.00 | 91 | 1018.3 |
| 20260503071051 | 49 | 253 | 0.0 | 0.0 | 0.00 | 0.00 | 0.00 | 91 | 1018.2 |